Погода в Бише

Саудовская Аравия     20°00′39″N   42°37′08″E
темп.,
°C
ветер,
м/с
пор.,
м/с
влажн.,
%
обл.,
%
осадки,
мм/ч
давл.,
гПа
погр.,
м
12 августа, пт
пт1200:00+33юз451992 0.0 1003105
03:00+32з473095 0.0 1003146
06:00+30сз693636 0.0 1004226
09:00+35с4518100 0.0 10051174
12:00+38св5614100 0.0 10033664
15:00+39ссв571239 0.0 10014391
18:00+38с581178 0.0 10004116
21:00+30зюз7847100 0.0 1004271
13 августа, сб
сб1300:00+33сз91231100 0.0 1003759
03:00+30сз9123962 0.0 1003674
06:00+28сз611401 0.0 1004363
09:00+34ссз792437 0.0 10041204
12:00+38ссв81014100 0.0 10013780
15:00+39ссв881213 0.0 9994194
18:00+38св981286 0.0 9984218
21:00+35ссв581674 0.0 1001152
14 августа, вс
вс1400:00+31сз91235100 0.1 1003530
03:00+30зсз81330100 0.1 1002476
06:00+29сз6103291 0.0 1004252
09:00+33ссз792255 0.0 10041408
12:00+38с791585 0.0 10014199
15:00+39ссв8813100 0.0 9994411
18:00+37св791294 0.1 9992855
21:00+30з8124273 0.1 1003603
15 августа, пн
пн1500:00+31ссз4732100 0.0 1004258
03:00+28зсз3643100 0.0 1004131
06:00+27зсз353913 0.0 100585
09:00+32ссз662530 0.0 1005972
12:00+36ссз441761 0.0 10032521
15:00+39ссв671175 0.0 10004753
18:00+37ссв6811100 0.0 10004107
21:00+31з101237100 0.0 1003887
16 августа, вт
вт1600:00+31з5103378 0.0 1004446
03:00+28зюз344333 0.0 100486
06:00+27з583912 0.0 1005153
09:00+32ссз77235 0.0 10041140
12:00+37ссв761490 0.0 10024422
15:00+38св751298 0.0 10004273
18:00+35всв1091797 0.0 10011328
21:00+34всв5819100 0.0 1003595